�������l�o���
Date,Time,MP-1(��Sv/h),MP-2(��Sv/h),MP-3(��Sv/h),MP-4(��Sv/h),MP-5(��Sv/h),MP-6(��Sv/h),MP-7(��Sv/h),MP-8(��Sv/h),����,����(m/s),���J
2016/10/11,00:00,1.144,1.911,1.359,2.094,1.469,0.597,1.060,0.979,�k��,6.0,��
2016/10/11,00:10,1.145,1.910,1.362,2.096,1.469,0.596,1.060,0.980,�k��,6.4,��
2016/10/11,00:20,1.146,1.910,1.360,2.097,1.470,0.598,1.063,0.983,�k��,7.2,��
2016/10/11,00:30,1.145,1.910,1.358,2.096,1.469,0.597,1.061,0.980,�k��,6.7,��
2016/10/11,00:40,1.144,1.911,1.361,2.095,1.472,0.597,1.062,0.980,�k��,6.0,��
2016/10/11,00:50,1.144,1.909,1.360,2.097,1.471,0.597,1.062,0.981,�k�k��,5.3,��
2016/10/11,01:00,1.146,1.911,1.359,2.096,1.470,0.597,1.061,0.979,�k�k��,6.0,��
2016/10/11,01:10,1.145,1.909,1.361,2.098,1.471,0.597,1.064,0.981,�k�k��,4.6,��
2016/10/11,01:20,1.145,1.910,1.360,2.099,1.473,0.598,1.061,0.981,�k�k��,4.4,��
2016/10/11,01:30,1.145,1.908,1.356,2.094,1.470,0.599,1.060,0.980,�k�k��,4.6,��
2016/10/11,01:40,1.146,1.913,1.359,2.097,1.474,0.597,1.061,0.981,�k�k��,5.2,��
2016/10/11,01:50,1.142,1.909,1.362,2.100,1.470,0.598,1.060,0.981,�k�k��,4.9,��
2016/10/11,02:00,1.143,1.909,1.359,2.098,1.470,0.597,1.061,0.980,�k�k��,4.9,��
2016/10/11,02:10,1.142,1.911,1.358,2.097,1.468,0.598,1.062,0.979,�k�k��,5.3,��
2016/10/11,02:20,1.144,1.912,1.357,2.097,1.470,0.596,1.061,0.981,�k�k��,4.9,��
2016/10/11,02:30,1.144,1.907,1.356,2.099,1.471,0.599,1.061,0.981,�k�k��,4.9,��
2016/10/11,02:40,1.142,1.910,1.358,2.096,1.470,0.597,1.061,0.979,�k�k��,4.5,��
2016/10/11,02:50,1.145,1.907,1.358,2.096,1.470,0.594,1.062,0.981,�k�k��,4.6,��
2016/10/11,03:00,1.143,1.908,1.361,2.095,1.469,0.595,1.063,0.979,�k�k��,4.1,��
2016/10/11,03:10,1.143,1.909,1.357,2.099,1.470,0.598,1.062,0.979,�k��,4.1,��
2016/10/11,03:20,1.143,1.907,1.357,2.097,1.469,0.596,1.061,0.979,�k��,3.9,��
2016/10/11,03:30,1.143,1.911,1.357,2.095,1.469,0.598,1.063,0.979,�k��,4.1,��
2016/10/11,03:40,1.146,1.907,1.358,2.095,1.465,0.597,1.061,0.981,�k��,4.1,��
2016/10/11,03:50,1.144,1.909,1.355,2.093,1.469,0.598,1.061,0.979,�k��,4.4,��
2016/10/11,04:00,1.144,1.906,1.357,2.096,1.469,0.597,1.063,0.978,�k��,3.8,��
2016/10/11,04:10,1.146,1.908,1.358,2.095,1.468,0.597,1.062,0.979,�k�k��,3.8,��
2016/10/11,04:20,1.143,1.911,1.357,2.092,1.470,0.594,1.063,0.979,�k�k��,4.4,��
2016/10/11,04:30,1.144,1.906,1.359,2.098,1.468,0.596,1.061,0.979,�k�k��,4.2,��
2016/10/11,04:40,1.146,1.908,1.359,2.098,1.470,0.596,1.063,0.979,�k�k��,4.9,��
2016/10/11,04:50,1.143,1.908,1.361,2.094,1.468,0.595,1.062,0.978,�k��,5.2,��
2016/10/11,05:00,1.144,1.908,1.359,2.093,1.469,0.597,1.062,0.980,�k��,4.9,��
2016/10/11,05:10,1.143,1.908,1.356,2.097,1.470,0.596,1.064,0.980,�k��,5.3,��
2016/10/11,05:20,1.145,1.906,1.356,2.098,1.469,0.598,1.065,0.980,�k��,6.0,��
2016/10/11,05:30,1.143,1.908,1.356,2.096,1.469,0.594,1.062,0.981,�k��,6.3,��
2016/10/11,05:40,1.142,1.908,1.356,2.095,1.469,0.596,1.060,0.981,�k��,7.2,��
2016/10/11,05:50,1.144,1.909,1.358,2.096,1.467,0.596,1.059,0.979,�k�k��,7.2,��
2016/10/11,06:00,1.144,1.911,1.358,2.097,1.469,0.596,1.061,0.979,�k�k��,6.9,��
2016/10/11,06:10,1.142,1.907,1.358,2.100,1.466,0.596,1.059,0.980,�k��,6.9,��
2016/10/11,06:20,1.144,1.907,1.359,2.100,1.468,0.596,1.061,0.977,�k�k��,6.9,��
2016/10/11,06:30,1.143,1.908,1.359,2.099,1.467,0.596,1.063,0.979,�k��,6.6,��
2016/10/11,06:40,1.143,1.908,1.356,2.097,1.468,0.595,1.063,0.978,�k�k��,7.1,��
2016/10/11,06:50,1.143,1.909,1.356,2.095,1.471,0.596,1.060,0.979,�k��,7.1,��
2016/10/11,07:00,1.145,1.913,1.359,2.096,1.470,0.595,1.064,0.979,�k�k��,6.6,��
2016/10/11,07:10,1.143,1.911,1.360,2.098,1.469,0.596,1.063,0.979,�k��,6.1,��
2016/10/11,07:20,1.142,1.909,1.361,2.098,1.469,0.598,1.062,0.981,�k��,6.9,��
2016/10/11,07:30,1.145,1.911,1.354,2.100,1.468,0.595,1.063,0.980,�k��,6.0,��
2016/10/11,07:40,1.145,1.910,1.355,2.099,1.469,0.596,1.062,0.980,�k��,5.2,��
2016/10/11,07:50,1.146,1.912,1.352,2.100,1.470,0.597,1.062,0.981,�k�k��,3.9,��
2016/10/11,08:00,1.147,1.906,1.355,2.101,1.469,0.596,1.061,0.980,�k�k��,4.7,��
2016/10/11,08:10,1.145,1.907,1.354,2.102,1.470,0.597,1.063,0.981,�k�k��,3.9,��
2016/10/11,08:20,1.144,1.910,1.355,2.102,1.472,0.595,1.062,0.982,�k�k��,3.6,��
2016/10/11,08:30,1.145,1.911,1.357,2.104,1.469,0.596,1.061,0.981,�k�k��,3.1,��
2016/10/11,08:40,1.145,1.915,1.358,2.100,1.472,0.598,1.062,0.981,�k�k��,2.5,��
2016/10/11,08:50,1.147,1.911,1.357,2.100,1.470,0.597,1.064,0.982,�k��,2.9,��
2016/10/11,09:00,1.147,1.912,1.357,2.102,1.473,0.598,1.064,0.984,�k�k��,2.9,��
2016/10/11,09:10,1.149,1.911,1.358,2.101,1.471,0.599,1.064,0.982,�k�k��,2.9,��
2016/10/11,09:20,1.147,1.911,1.358,2.102,1.472,0.598,1.062,0.980,�k�k��,3.1,��
2016/10/11,09:30,1.144,1.909,1.360,2.102,1.466,0.598,1.063,0.980,�k�k��,3.1,��
2016/10/11,09:40,1.146,1.910,1.361,2.102,1.469,0.595,1.063,0.981,�k,2.9,��
2016/10/11,09:50,1.146,1.913,1.359,2.104,1.470,0.595,1.062,0.981,�k,3.5,��
2016/10/11,10:00,1.145,1.907,1.362,2.104,1.469,0.597,1.063,0.980,�k,3.8,��
2016/10/11,10:10,1.143,1.910,1.361,2.105,1.471,0.598,1.062,0.978,�k,4.2,��
2016/10/11,10:20,1.147,1.909,1.359,2.102,1.471,0.595,1.064,0.980,�k�k��,3.6,��
2016/10/11,10:30,1.139,1.910,1.359,2.103,1.473,0.596,1.062,0.980,�k�k��,3.2,��
2016/10/11,10:40,1.139,1.909,1.361,2.100,1.472,0.595,1.063,0.979,�k�k��,3.4,��
2016/10/11,10:50,1.140,1.910,1.358,2.102,1.470,0.593,1.064,0.980,�k�k��,3.9,��
2016/10/11,11:00,1.143,1.913,1.361,2.103,1.471,0.596,1.062,0.979,�k�k��,3.8,��
2016/10/11,11:10,1.147,1.912,1.358,2.105,1.471,0.594,1.064,0.979,�k�k��,4.1,��
2016/10/11,11:20,1.147,1.910,1.357,2.103,1.475,0.596,1.064,0.978,�k��,3.3,��
2016/10/11,11:30,1.147,1.914,1.359,2.106,1.472,0.595,1.065,0.978,�k�k��,3.6,��
2016/10/11,11:40,1.147,1.916,1.359,2.105,1.472,0.595,1.065,0.980,�k��,3.4,��
2016/10/11,11:50,1.146,1.915,1.363,2.106,1.474,0.595,1.065,0.980,�k��,3.4,��
2016/10/11,12:00,1.146,1.913,1.360,2.104,1.474,0.598,1.063,0.981,�k��,3.1,��
2016/10/11,12:10,1.148,1.914,1.360,2.106,1.473,0.595,1.064,0.979,�k��,2.8,��
2016/10/11,12:20,1.146,1.911,1.362,2.104,1.474,0.597,1.066,0.977,�k��,3.3,��
2016/10/11,12:30,1.146,1.917,1.362,2.106,1.474,0.598,1.065,0.979,���k��,3.4,��
2016/10/11,12:40,1.146,1.916,1.363,2.108,1.472,0.598,1.066,0.980,��,2.9,��
2016/10/11,12:50,1.146,1.917,1.366,2.107,1.475,0.599,1.064,0.980,���k��,2.2,��
2016/10/11,13:00,1.145,1.911,1.364,2.106,1.475,0.597,1.065,0.980,���k��,2.4,��
2016/10/11,13:10,1.149,1.918,1.360,2.106,1.473,0.596,1.064,0.980,���k��,2.0,��
2016/10/11,13:20,1.147,1.914,1.362,2.107,1.472,0.597,1.062,0.977,���쓌,2.2,��
2016/10/11,13:30,1.147,1.917,1.358,2.107,1.475,0.597,1.063,0.980,���쓌,2.3,��
2016/10/11,13:40,1.147,1.920,1.365,2.105,1.477,0.598,1.066,0.979,���쓌,3.1,��
2016/10/11,13:50,1.148,1.918,1.365,2.109,1.477,0.598,1.066,0.978,��,2.3,��
2016/10/11,14:00,1.150,1.920,1.368,2.111,1.476,0.599,1.064,0.979,���쓌,2.3,��
2016/10/11,14:10,1.149,1.917,1.366,2.108,1.474,0.600,1.065,0.979,��,2.3,��
2016/10/11,14:20,1.151,1.921,1.366,2.107,1.477,0.601,1.065,0.979,�쓌,1.8,��
2016/10/11,14:30,1.148,1.920,1.366,2.108,1.475,0.600,1.064,0.980,�쓌,1.7,��
2016/10/11,14:40,1.150,1.922,1.366,2.109,1.478,0.600,1.065,0.981,�쓌,2.4,��
2016/10/11,14:50,1.150,1.919,1.366,2.107,1.474,0.600,1.065,0.978,���쓌,1.8,��
2016/10/11,15:00,1.151,1.915,1.368,2.110,1.474,0.599,1.064,0.981,���쓌,1.5,��
2016/10/11,15:10,1.151,1.918,1.371,2.109,1.477,0.598,1.066,0.981,���쓌,1.5,��
2016/10/11,15:20,1.151,1.919,1.366,2.111,1.474,0.600,1.064,0.981,��쓌,2.0,��
2016/10/11,15:30,1.153,1.924,1.369,2.110,1.476,0.600,1.064,0.982,�쓌,1.7,��
2016/10/11,15:40,1.151,1.925,1.372,2.108,1.477,0.600,1.065,0.981,��쓌,2.9,��
2016/10/11,15:50,1.155,1.922,1.369,2.109,1.476,0.600,1.066,0.982,��,2.2,��
2016/10/11,16:00,1.151,1.926,1.371,2.112,1.480,0.601,1.067,0.981,��쓌,1.9,��
2016/10/11,16:10,1.151,1.921,1.371,2.113,1.476,0.601,1.065,0.982,�쓌,2.2,��
2016/10/11,16:20,1.150,1.920,1.370,2.108,1.478,0.599,1.063,0.983,��,2.3,��
2016/10/11,16:30,1.155,1.923,1.368,2.108,1.476,0.601,1.063,0.979,��,2.1,��
2016/10/11,16:40,1.152,1.922,1.370,2.108,1.477,0.602,1.067,0.983,��,2.0,��
2016/10/11,16:50,1.152,1.925,1.369,2.112,1.478,0.600,1.063,0.983,��,2.8,��
2016/10/11,17:00,1.153,1.923,1.371,2.110,1.474,0.601,1.064,0.984,��쐼,3.0,��
2016/10/11,17:10,1.152,1.925,1.369,2.108,1.478,0.600,1.066,0.984,��쐼,2.0,��
2016/10/11,17:20,1.153,1.922,1.369,2.110,1.478,0.600,1.067,0.984,��쐼,1.9,��
2016/10/11,17:30,1.151,1.924,1.370,2.110,1.478,0.600,1.066,0.984,��쐼,2.2,��
2016/10/11,17:40,1.153,1.921,1.370,2.108,1.477,0.600,1.065,0.983,�쐼,1.5,��
2016/10/11,17:50,1.154,1.922,1.368,2.108,1.479,0.600,1.064,0.983,��쐼,2.1,��
2016/10/11,18:00,1.150,1.923,1.367,2.108,1.478,0.601,1.067,0.982,��쐼,2.5,��
2016/10/11,18:10,1.151,1.923,1.368,2.109,1.478,0.601,1.064,0.984,��쐼,2.9,��
2016/10/11,18:20,1.149,1.923,1.367,2.106,1.480,0.600,1.068,0.983,��쐼,2.9,��
2016/10/11,18:30,1.147,1.922,1.369,2.109,1.477,0.598,1.064,0.981,��쐼,1.9,��
2016/10/11,18:40,1.152,1.923,1.366,2.108,1.479,0.601,1.066,0.984,��쐼,3.0,��
2016/10/11,18:50,1.150,1.925,1.368,2.109,1.478,0.601,1.067,0.983,��쐼,3.3,��
2016/10/11,19:00,1.150,1.923,1.367,2.108,1.481,0.601,1.065,0.984,��쐼,3.8,��
2016/10/11,19:10,1.150,1.920,1.366,2.106,1.477,0.601,1.068,0.983,��,3.8,��
2016/10/11,19:20,1.150,1.920,1.368,2.106,1.478,0.601,1.064,0.983,��,3.6,��
2016/10/11,19:30,1.151,1.919,1.365,2.106,1.477,0.598,1.067,0.983,��,3.4,��
2016/10/11,19:40,1.152,1.924,1.367,2.110,1.475,0.601,1.065,0.983,��쐼,3.9,��
2016/10/11,19:50,1.150,1.923,1.367,2.104,1.476,0.601,1.066,0.983,��,4.6,��
2016/10/11,20:00,1.152,1.921,1.365,2.107,1.475,0.600,1.066,0.983,��,4.9,��
2016/10/11,20:10,1.150,1.921,1.367,2.110,1.479,0.601,1.064,0.982,��,4.9,��
2016/10/11,20:20,1.150,1.924,1.366,2.107,1.480,0.599,1.065,0.982,��쐼,4.4,��
2016/10/11,20:30,1.153,1.924,1.370,2.109,1.477,0.599,1.064,0.983,��쐼,4.6,��
2016/10/11,20:40,1.151,1.921,1.367,2.109,1.473,0.601,1.068,0.983,��쐼,4.9,��
2016/10/11,20:50,1.152,1.921,1.366,2.109,1.479,0.601,1.066,0.983,��쐼,4.1,��
2016/10/11,21:00,1.151,1.922,1.366,2.109,1.478,0.601,1.067,0.982,��쐼,3.5,��
2016/10/11,21:10,1.152,1.921,1.367,2.108,1.476,0.602,1.067,0.984,��쐼,4.1,��
2016/10/11,21:20,1.151,1.921,1.368,2.107,1.480,0.601,1.067,0.983,��쐼,4.4,��
2016/10/11,21:30,1.151,1.922,1.365,2.109,1.476,0.600,1.066,0.984,��쐼,4.6,��
2016/10/11,21:40,1.154,1.922,1.366,2.108,1.475,0.598,1.068,0.982,��쐼,4.6,��
2016/10/11,21:50,1.153,1.921,1.366,2.109,1.477,0.602,1.066,0.982,��쐼,4.4,��
2016/10/11,22:00,1.150,1.920,1.366,2.107,1.476,0.600,1.067,0.981,��쐼,3.8,��
2016/10/11,22:10,1.153,1.923,1.366,2.109,1.474,0.599,1.065,0.983,��쐼,3.5,��
2016/10/11,22:20,1.150,1.922,1.368,2.110,1.476,0.599,1.066,0.983,��쐼,3.1,��
2016/10/11,22:30,1.151,1.921,1.367,2.109,1.477,0.600,1.065,0.985,��쐼,3.4,��
2016/10/11,22:40,1.151,1.919,1.365,2.109,1.477,0.601,1.065,0.983,��쐼,3.8,��
2016/10/11,22:50,1.151,1.919,1.368,2.107,1.475,0.598,1.066,0.981,�쐼,3.9,��
2016/10/11,23:00,1.153,1.918,1.366,2.109,1.478,0.600,1.068,0.982,�쐼,3.8,��
2016/10/11,23:10,1.151,1.919,1.366,2.111,1.475,0.600,1.069,0.982,�쐼,3.2,��
2016/10/11,23:20,1.153,1.921,1.367,2.106,1.477,0.601,1.065,0.983,�쐼,3.5,��
2016/10/11,23:30,1.154,1.919,1.366,2.110,1.476,0.599,1.066,0.984,�쐼,3.4,��
2016/10/11,23:40,1.151,1.918,1.365,2.106,1.478,0.599,1.065,0.981,��,2.2,��
2016/10/11,23:50,1.152,1.919,1.368,2.107,1.474,0.600,1.066,0.982,�k��,3.5,��
